Location: Madden
(51.3728°N, 114.3297°W)
Time: 00:40:01
(UTC+00:00)

Envisat - Visible Passes

Search period start: 16 April 2024 00:00
Search period end: 26 April 2024 00:00
Orbit: 762 x 764 km, 98.3° (Epoch: 15 April)

Date Brightness Start Highest point End Pass type
(mag) Time Alt. Az. Time Alt. Az. Time Alt. Az.
16 Apr 5.3 09:50:41 10° NE 09:54:15 19° E 09:57:47 10° SE visible
16 Apr 3.0 11:28:41 10° NNE 11:33:46 73° WNW 11:38:49 10° SSW visible
17 Apr 3.5 10:51:23 10° NNE 10:56:24 58° E 11:01:24 10° S visible
18 Apr 4.7 10:14:25 10° NNE 10:18:51 29° E 10:23:14 10° SSE visible
18 Apr 3.4 11:53:09 10° N 11:58:02 47° WNW 12:02:52 10° SW visible
19 Apr 5.5 09:38:13 10° NE 09:41:04 15° E 09:43:54 10° ESE visible
19 Apr 3.0 11:15:40 10° NNE 11:20:47 89° E 11:25:53 10° SSW visible
20 Apr 4.0 10:38:28 10° NNE 10:43:22 45° E 10:48:13 10° S visible
21 Apr 5.0 10:01:41 10° NE 10:05:44 23° E 10:09:44 10° SE visible
21 Apr 3.2 11:40:05 10° N 11:45:05 59° WNW 11:50:04 10° SSW visible
22 Apr 5.7 09:26:12 10° ENE 09:27:52 11° E 09:29:32 10° ESE visible
22 Apr 3.2 11:02:41 10° NNE 11:07:47 72° ESE 11:12:50 10° S visible
23 Apr 4.4 10:25:36 10° NNE 10:30:17 36° E 10:34:56 10° SSE visible
24 Apr 5.3 09:49:03 10° NE 09:52:34 18° E 09:56:04 10° SE visible
24 Apr 3.0 11:27:01 10° NNE 11:32:07 75° WNW 11:37:10 10° SSW visible
25 Apr 3.6 10:49:43 10° NNE 10:54:44 56° E 10:59:43 10° S visible
